星链-31381 (STARLINK-31381 )

导读

STARLINK-31381是美国SpaceX星链星座的一员,于2024年4月10日发射升空。星链旨在构建全球卫星互联网,为偏远地区、海洋空域提供高速网络服务。该卫星加入后进一步扩充了星链低轨卫星网络规模,提升了星座覆盖密度与服务能力,也持续引发了对天文观测干扰和太空轨道资源的争议讨论。

基本信息
目录编号:
59469
目录名称:
STARLINK-31381
国际标识:
2024-068Q
轨道中心:
EARTH
卫星名称:
星链-31381
卫星全名:
星链-31381 (STARLINK-31381 )
卫星状态:
在轨 (已飞行885 天)
发射日期:
2024-04-10 UTC
国别 :
美国 (US)
星等 :
--
该卫星已列入 空间交会检测服务 Space Conjunction Data Service (SCDS) ,当前飞行风险评估等级: 无高风险
轨道信息
数据来源 国际轨道数据
星历时间: 2026-09-12T03:02:03+0800
1天前
查看轨道信息
半长轴: 6861.217km
偏心率: 0.0001532
轨道倾角: 43.004°
近地点辐角 265.492°
升交点赤经 60.144°
平近点角 94.576°
近地点: 482.028km
远地点: 484.132km
周期: 94.267分钟
每日圈数: 15.2757
详细信息
固有亮度:
5
最大亮度:
1.5
卫星平台:
Starlink v2.0 mini
覆盖范围:
全球
运营商:
太空探索技术公司
运营商所在国:
美国
制造商(研发单位):
太空探索技术公司
制造商所在国:
美国
使用方式:
暂无
卫星简介
星链(Starlink)计划是由太空探索技术公司(SpaceX)提出的一个巨型低轨卫星互联网星座项目,计划在2019年至2024年间在太空搭建由约1.2万颗卫星组成的“星链”网络,其中1584颗将部署在地球上空550千米处的近地轨道,并从2020年开始工作。该卫星仍在工作。
2D轨道图
3D轨道图
轨道高度分析图
轨道倾角分析图
轨道综合分析图
查看轨道综合分析图
与全量物体交会距离演化趋势
与全量物体交会风险概率演化趋势